Track STARLINK-67 now! 10-day predictions STARLINK-67 is classified as:
1 44278U 19029AV 19349.91667824 -.00002213 10948-4 46777-5 0 9996 2 44278 52.9935 231.5220 0018594 268.3505 57.5254 15.86915138 32472